ELECTRON KICK STAGE R/B, 60420

Orbit data source: Space-Track

ELECTRON KICK STAGE R/B, 60420 is space debris in LEO originally from a launch on Sun, 11 Aug 2024 UTC launched from the Rocket Lab Launch Complex (RLLC). Debris objects in space refer to the collection of defunct objects orbiting the Earth. Examples of debris include non-operational satellites, rocket bodies, and fragments generated from explosions, collisions, or faulty payload assembly.

Loading next visibility...
Identifier
60420, 2024-142B
Orbit
LEO
Country
Flag of USUS
Related business
Manufacturer
Rocket Lab
Mission
Spacecraft
Bus & Motor
KICK STAGE, CURIE
Mass
~50 kg wet, ~50 kg dry
Launch date (UTC)
2024-08-11 (2 years ago)
Launch vehicle
Unknown
Launch site
Rocket Lab Launch Complex (RLLC)
Object type
Payload
Rocket body
Debris
Shape & HBR
Trunc Cone, 0.7 m
Radar Cross Section
0.760 m², Large (>1 m²)

Expand to show TLE details & history
Last TLE update: 13 hours ago

TLE from 13 hours ago
0 ELECTRON KICK STAGE R/B
1 60420U 24142B   26171.32235147  .00002306  00000-0  24066-3 0  9991
2 60420  53.0046  31.4293 0012190 106.9774 253.2546 14.93442827101026
Epoch: 2026-06-20T07:44Z
TLE epoch observation values (Epoch: 2026-06-20T07:44:11.167Z)
Latitude
0.00003°
Longitude
6.84416°
Altitude
590.535 km
Speed
7.565 km/s
True Right ascension
02h 05m 43s
True Declination
0° 00' 00"
Sunlit
Object was in daylight at epoch
Visualization orbit readout
Latitude
Unknown
Longitude
Unknown
Altitude
Unknown
Speed
Unknown
Apparent Right ascension
Unknown
Apparent Declination
Unknown
Sunlit
N/A
Visualization observer readout
Local Sidereal Time
07:18:01
Azimuth
Unknown
Elevation
Unknown
Doppler factor
Unknown
Orbital elements
Apogee altitude
595.979 km
Perigee altitude
578.996 km
Semi-major axis
6,965.624 km
Eccentricity
0.00122
Inclination
53.0046°
RAAN
31.4293°
Arg. of periapsis
106.9774°
True anomaly
253.1209°
Mean anomaly
253.2546°
Eccentric anomaly
253.18774°
Mean motion
3.73339 °/min
Orbital period
96.43 mins
BSTAR
0.00024066
Loading maneuver chart data...
Computing Atmospheric mass density...
Loading historical data...
Loading historical data...
Loading historical data...
Loading historical data...
Loading historical data...
Loading historical data...
Loading historical data...
Other satellites on launch #142 in the year 2024 (2024-08-11 UTC)

Documentation

Showing up to 5 results
|